AEHF-2 (USA 235)

Last updated on Sun Jun 21 2026 00:03:05 GMT+0000 (Coordinated Universal Time)

1 38254U 12019A 26171.38877713 -.00000142 00000+0 00000+0 0 9992 2 38254 6.6576 57.4654 0002221 27.3152 307.2115 1.00271549 7018
UTC large
Height (km)
Speed (km/s)
/
Latitude / Longitude
Inclination (degrees)
Orbital Period (minutes)
Azimuth
Elevation
Range (km)
Doppler Factor

Next 0 passes for location: London (51.5072 / 0.1276)

No passes found over London.
AEHF-2 (USA 235)